Wooster, OH

5:43 AM EST on December 06, 2019 (GMT -0500)
Wayne County

Weather History for KBJJ - October, 2019

Change the Weather History Date:

Thursday, October 10, 2019

  Actual Average Record
Temperature  
Mean Temperature 58 °F -  
Max Temperature 73 °F 63 °F 84 °F (2010)
Min Temperature 42 °F 39 °F 33 °F (2016)
Degree Days  
Heating Degree Days 8    
Growing Degree Days 8 (Base 50)    
Moisture  
Dew Point 49 °F    
Average Humidity 80    
Maximum Humidity 97    
Minimum Humidity 51    
Precipitation  
Precipitation 0.00 in - - ()
Sea Level Pressure  
Sea Level Pressure 30.20 in    
Wind  
Wind Speed 2 mph (ESE)    
Max Wind Speed 8 mph    
Max Gust Speed -    
Visibility 10 miles    
Events      
Averages and records for this station are not official NWS values.
T = Trace of Precipitation, MM = Missing Value Source: NWS Daily Summary

Daily Weather History Graph

Daily Weather History Graph

Search for Another Location

Airport or City:

Astronomy

Oct. 10, 2019 Rise Set
Actual Time 7:33 AM EDT 6:55 PM EDT
Civil Twilight 7:05 AM EDT 7:22 PM EDT
Nautical Twilight 6:33 AM EDT 7:54 PM EDT
Astronomical Twilight 6:02 AM EDT 8:26 PM EDT
Moon 5:57 PM EDT (10/10) 4:13 AM EDT (10/10)
Length of Visible Light 12h 16m
Length of Day
11h 21m
Waxing Gibbous, 91% of the Moon is Illuminated
Oct 10
Waxing Gibbous
Oct 13
Full
Oct 21
Last Quarter
Oct 27
New
Nov 4
First Quarter

Hourly Weather History & Observations

Time (EDT) Temp. Windchill Dew Point Humidity Pressure Visibility Wind Dir Wind Speed Gust Speed Precip Events Conditions
12:56 AM 45.0 °F - 43.0 °F 93% 30.21 in 10.0 mi Calm Calm - N/A   Clear
1:56 AM 44.1 °F 42.5 °F 42.1 °F 93% 30.20 in 10.0 mi ENE 3.5 mph - N/A   Clear
2:56 AM 44.1 °F - 42.1 °F 93% 30.20 in 10.0 mi Calm Calm - N/A   Clear
3:56 AM 43.0 °F - 42.1 °F 97% 30.20 in 10.0 mi Calm Calm - N/A   Clear
4:56 AM 43.0 °F - 41.0 °F 93% 30.21 in 10.0 mi Calm Calm - N/A   Clear
5:56 AM 42.1 °F 40.2 °F 41.0 °F 96% 30.22 in 10.0 mi East 3.5 mph - N/A   Clear
6:56 AM 43.0 °F 41.3 °F 41.0 °F 93% 30.24 in 10.0 mi East 3.5 mph - N/A   Clear
7:56 AM 45.0 °F - 43.0 °F 93% 30.25 in 10.0 mi Calm Calm - N/A   Clear
8:56 AM 50.0 °F - 46.0 °F 86% 30.26 in 10.0 mi East 5.8 mph - N/A   Partly Cloudy
9:56 AM 54.0 °F - 46.9 °F 77% 30.25 in 10.0 mi ESE 8.1 mph - N/A   Clear
10:56 AM 60.1 °F - 50.0 °F 69% 30.25 in 10.0 mi SE 4.6 mph - N/A   Clear
11:56 AM 64.9 °F - 52.0 °F 63% 30.24 in 10.0 mi SSE 5.8 mph - N/A   Clear
12:56 PM 68.0 °F - 53.1 °F 59% 30.22 in 10.0 mi SE 6.9 mph - N/A   Clear
1:56 PM 70.0 °F - 53.1 °F 55% 30.19 in 10.0 mi SSE 5.8 mph - N/A   Clear
2:56 PM 72.0 °F - 54.0 °F 53% 30.18 in 10.0 mi North - - N/A   Clear
3:56 PM 72.0 °F - 54.0 °F 53% 30.17 in 10.0 mi SSW 4.6 mph - N/A   Clear
4:56 PM 73.0 °F - 54.0 °F 51% 30.16 in 10.0 mi Variable 3.5 mph - N/A   Partly Cloudy
5:56 PM 71.1 °F - 55.0 °F 57% 30.15 in 10.0 mi SSE 3.5 mph - N/A   Clear
6:56 PM 60.1 °F - 55.9 °F 86% 30.15 in 10.0 mi ESE 3.5 mph - N/A   Clear
7:56 PM 55.0 °F - 54.0 °F 96% 30.16 in 10.0 mi Calm Calm - N/A   Clear
8:56 PM 54.0 °F - 52.0 °F 93% 30.15 in 10.0 mi Calm Calm - N/A   Clear
9:56 PM 54.0 °F - 52.0 °F 93% 30.16 in 10.0 mi East 4.6 mph - N/A   Clear
10:56 PM 55.0 °F - 52.0 °F 89% 30.16 in 10.0 mi ESE 4.6 mph - N/A   Clear
11:56 PM 52.0 °F - 51.1 °F 97% 30.16 in 10.0 mi Calm Calm - N/A   Clear